STARLINK-34360, 64304

Orbit data source: Space-Track

STARLINK-34360, 64304 is a payload satellite owned by SpaceX/Seattle (US) in LEO that was launched on Sun, 08 Jun 2025 UTC via an FALCON 9 launch vehicle from the Air Force Western Test Range (AFWTR). Payload-class satellites include a variety of spacecraft equipped with specific instruments for various scientific and technological missions. These include communications satellites like Starlink; space stations such as the ISS; scientific satellites like the Hubble; Earth observation satellites from companies like Planet Labs, Umbra, and HawkEye 360; GPS; miniature CubeSats for education and research; and military/defense satellites.

Loading next visibility...
Identifier
64304, 2025-123P
Orbit
LEO
Country
Flag of USUS
Related business
Manufacturer
SpaceX/Seattle
Mission
Operational Commercial Communications
Bus & Motor
STARLINK V2MO, Unknown motor
Mass
575 kg wet, ~530 kg dry
Launch date (UTC)
2025-06-08 (10 months ago)
Launch vehicle
FALCON 9
Launch site
Air Force Western Test Range (AFWTR)
Object type
Payload
Rocket body
Debris
Shape & HBR
Box + 2 Pan, 17.7 m
Radar Cross Section
36.964 m², Large (>1 m²)

Expand to show TLE details & history
Last TLE update: 22 hours ago

TLE from 22 hours ago
0 STARLINK-34360
1 64304U 25123P   26093.37660429  .00007457  00000-0  63186-3 0  9997
2 64304  70.0007 132.3221 0003204 271.0935  88.9857 14.98345121 45319
Epoch: 2026-04-03T09:02Z
TLE epoch observation values (Epoch: 2026-04-03T09:02:18.610Z)
Latitude
-0.00003°
Longitude
165.03293°
Altitude
574.394 km
Speed
7.574 km/s
True Right ascension
08h 49m 17s
True Declination
0° 00' 00"
Sunlit
Object was in full shadow at epoch
Visualization orbit readout
Latitude
Unknown
Longitude
Unknown
Altitude
Unknown
Speed
Unknown
Apparent Right ascension
Unknown
Apparent Declination
Unknown
Sunlit
N/A
Visualization observer readout
Local Sidereal Time
13:06:09
Azimuth
Unknown
Elevation
Unknown
Doppler factor
Unknown
Orbital elements
Apogee altitude
572.183 km
Perigee altitude
567.731 km
Semi-major axis
6,948.094 km
Eccentricity
0.00032
Inclination
70.0007°
RAAN
132.3221°
Arg. of periapsis
271.0935°
True anomaly
89.02241°
Mean anomaly
88.9857°
Eccentric anomaly
89.00405°
Mean motion
3.74753 °/min
Orbital period
96.06 mins
BSTAR
0.00063186
Loading maneuver chart data...
Computing Atmospheric mass density...
Loading historical data...
Loading historical data...
Loading historical data...
Loading historical data...
Loading historical data...
Loading historical data...
Loading historical data...

Documentation

Showing up to 5 results
|